Location: Highridge
(54.0333°N, 114.1333°W)
Time: 15:05:22
(UTC+00:00)

DIWATA 2B (PO-101) - Visible Passes

Search period start: 14 September 2024 00:00
Search period end: 24 September 2024 00:00
Orbit: 572 x 586 km, 98.1° (Epoch: 14 September)

Date Brightness Start Highest point End Pass type
(mag) Time Alt. Az. Time Alt. Az. Time Alt. Az.
14 Sep ? 09:38:09 10° E 09:40:38 16° NE 09:43:07 10° NNE visible
14 Sep ? 11:11:16 10° SSE 11:15:22 85° WSW 11:19:30 10° NNW visible
15 Sep ? 09:42:38 10° E 09:45:17 17° NE 09:47:57 10° NNE visible
15 Sep ? 11:16:00 10° SSE 11:20:05 78° WSW 11:24:12 10° NNW visible
16 Sep ? 09:47:07 10° E 09:49:56 18° ENE 09:52:46 10° NNE visible
16 Sep ? 11:20:42 10° S 11:24:47 70° WSW 11:28:53 10° NNW visible
17 Sep ? 09:51:36 10° ESE 09:54:34 20° ENE 09:57:32 10° NNE visible
17 Sep ? 11:25:25 10° S 11:29:28 64° WSW 11:33:33 10° NNW visible
18 Sep ? 09:56:06 10° ESE 09:59:11 21° ENE 10:02:18 10° N visible
18 Sep ? 11:30:07 10° S 11:34:08 58° WSW 11:38:12 10° NNW visible
19 Sep ? 02:16:02 10° NNW 02:18:23 15° NW 02:20:43 10° W visible
19 Sep ? 10:00:35 10° ESE 10:03:48 23° ENE 10:07:01 10° N visible
19 Sep ? 11:34:49 10° S 11:38:48 52° W 11:42:49 10° NNW visible
20 Sep ? 02:20:50 10° NNW 02:22:57 14° NW 02:25:05 10° W visible
20 Sep ? 10:05:04 10° ESE 10:08:23 25° ENE 10:11:44 10° N visible
20 Sep ? 11:39:30 10° S 11:43:27 47° W 11:47:25 10° NNW visible
21 Sep ? 02:25:38 10° NNW 02:27:31 13° NW 02:29:24 10° W visible
21 Sep ? 10:09:32 10° ESE 10:12:59 27° ENE 10:16:25 10° N visible
21 Sep ? 11:44:12 10° S 11:48:05 43° W 11:52:01 10° NNW visible
22 Sep ? 02:30:28 10° NNW 02:32:04 12° NW 02:33:40 10° WNW visible
22 Sep ? 10:14:01 10° ESE 10:17:32 29° ENE 10:21:05 10° N visible
22 Sep ? 11:48:53 10° SSW 11:52:43 39° W 11:56:35 10° NNW visible
23 Sep ? 02:35:22 10° NNW 02:36:36 11° NW 02:37:50 10° WNW visible
23 Sep ? 10:18:30 10° SE 10:22:06 31° ENE 10:25:44 10° N visible
23 Sep ? 11:53:33 10° SSW 11:57:19 35° W 12:01:07 10° NNW visible
